Location: Powder Track
(41.8531°N, 72.3584°W)
Time: 00:19:14
(UTC+00:00)

Vanguard 1 Rocket - Pass Details

Date: 12 August 2021
Orbit: 650 x 4226 km, 34.3° (Epoch: 19 September)

Event Time Altitude Azimuth Distance (km) Brightness Sun altitude
Rises 12:32:49 0° 244° (WSW) 8,299 11.8 28.0°
Reaches altitude 10° 12:38:30 10° 241° (WSW) 7,396 11.7 29.1°
Maximum altitude 13:04:06 65° 168° (SSE) 3,900 11.3 33.8°
Drops below altitude 10° 13:20:55 10° 92° (E) 5,177 12.5 36.9°
Sets 13:24:04 0° 89° (E) 5,813 12.4 37.4°
